Overview Statistics Trail Chart Weather Telemetry Raw packets
 

This is the latest recevied weather packets stored in our database for station/object S51UL-6. If no packets are shown the sender has not sent any weather packets the latest 10 day(s).

<< 60 61 62 63 64 65 66 >>
Time Temp. Humidity Pressure Rain* Wind** Luminosity Snow
1788104226 28.89° C 48% 1015.9 hPa 0 mm - - -
1788103926 29.44° C 47% 1015.8 hPa 0 mm - - -
1788103626 29.44° C 47% 1015.8 hPa 0 mm - - -
1788103326 30° C 47% 1015.8 hPa 0 mm - - -
1788103026 30° C 46% 1015.8 hPa 0 mm - - -
1788102726 30.56° C 47% 1015.8 hPa 0 mm - - -
1788102127 31.11° C 45% 1016 hPa 0 mm - - -
1788101826 31.67° C 44% 1015.8 hPa 0 mm - - -
1788101527 31.67° C 43% 1015.9 hPa 0 mm - - -
1788101226 32.22° C 44% 1016 hPa 0 mm - - -
1788100926 32.78° C 43% 1016 hPa 0 mm - - -
1788100626 32.78° C 42% 1015.9 hPa 0 mm - - -
1788100328 32.78° C 43% 1016 hPa 0 mm - - -
1788100026 32.78° C 43% 1016.1 hPa 0 mm - - -
1788099726 32.78° C 42% 1016.1 hPa 0 mm - - -
1788099429 33.33° C 42% 1016.1 hPa 0 mm - - -
1788099127 33.33° C 42% 1016.1 hPa 0 mm - - -
1788098828 33.33° C 42% 1016 hPa 0 mm - - -
1788098527 33.89° C 41% 1016.3 hPa 0 mm - - -
1788098227 33.33° C 42% 1016.4 hPa 0 mm - - -
1788097927 33.33° C 42% 1016.3 hPa 0 mm - - -
1788097327 33.33° C 42% 1016.5 hPa 0 mm - - -
1788097027 33.33° C 43% 1016.6 hPa 0 mm - - -
1788096128 33.33° C 43% 1016.6 hPa 0 mm - - -
1788095527 32.78° C 42% 1016.9 hPa 0 mm - - -

* Rain latest hour (hover to see other rain measurements)
** Current wind speed in m/s (hover to see current wind gust speed)